GSAT0103 (PRN E19)

Last updated on Sun Jul 21 2024 00:03:08 GMT+0000 (Coordinated Universal Time)

1 38857U 12055A 24201.43809689 -.00000007 00000+0 00000+0 0 9996 2 38857 55.4194 120.7197 0004168 282.7042 77.2411 1.70473615 73110

Satellite not in orbit

GSAT0103 (PRN E19)